Regional Weather Roundup
Issued by NWS

Home | Current Version | Previous Version | Graphics & Text | Print | Product List | Glossary On
Versions: 1 2 3 4 5 6 7 8 9 10 11 12 13 14 15 16 17 18 19 20 21 22 23 24 25 26 27 28 29 30 31 32 33 34 35 36 37 38 39 40 41 42 43 44 45 46 47 48 49
000
ASUS45 KSLC 120410
RWRUT

UTAH REGIONAL WEATHER ROUNDUP
NATIONAL WEATHER SERVICE SALT LAKE CITY UT
900 PM MST THU FEB 11 2016

UTZ001>011-023>025-120500-

NORTHERN UTAH

CITY           SKY/WX    TMP DP  RH WIND       PRES   REMARKS
BRIGHAM CITY   CLOUDY    27  24  89 N5        30.44F WCI  22
HILL AFB       CLOUDY    27  25  91 N2        30.39F FOG
LOGAN          FOG       22  22 100 CALM      30.41F VSB 3/4
OGDEN          CLOUDY    27  26  96 CALM      30.40F FOG
PROVO AIRPORT  FOG       14  10  85 CALM      30.42  VSB 1
SALT LAKE CITY CLOUDY    30  27  88 N7        30.42S FOG     WCI  23
VERNAL         CLOUDY    20  16  84 CALM      30.43R FOG
WENDOVER       CLOUDY    30  27  86 CALM      30.44S
HEBER CITY     CLEAR     23  18  80 CALM      30.39S
WEST JORDAN    CLOUDY    28  28 100 CALM      30.41S

$$

UTZ012>022-026-027-120500-

SOUTHERN/CENTRAL UTAH

CITY           SKY/WX    TMP DP  RH WIND       PRES   REMARKS
BLANDING       CLEAR     37  26  64 N3        30.44S
BRYCE CANYON   PTCLDY    25  17  72 W7        30.44S WCI  17
CEDAR CITY     PTCLDY    27  22  81 CALM      30.38R
DELTA          CLOUDY    19  18  96 SW5       30.44R VSB 1/4 WCI  12
HANKSVILLE     MOCLDY    32  30  93 CALM      30.43R
MILFORD        MOCLDY    15  12  88 N8        30.41S WCI   4
MOAB/CYNLANDS  CLEAR     32  27  81 W3        30.39R
PRICE          PTCLDY    30  22  72 NE6       30.39R WCI  24
ST GEORGE      CLEAR     50  27  40 CALM      30.29R
KANAB          PTCLDY    39  32  75 NE6       30.37R WCI  35

$$

REGIONAL REPORTS     COLORADO/ARIZONA

CITY           SKY/WX    TMP DP  RH WIND       PRES   REMARKS
CRAIG, CO      CLOUDY    16  12  84 W3        30.40S
GRAND JUNCTION CLOUDY    26  25  96 NE3       30.40S
RIFLE          CLOUDY    28  18  66 CALM      30.41R
MONTROSE       CLOUDY    30  23  75 S7        30.43R WCI  23
CORTEZ         CLOUDY    30  24  78 E10       30.38S WCI  21
PAGE, AZ       PTCLDY    44  29  55 CALM      30.35R
GRAND CANYON   PTCLDY    29  22  75 NE3       30.40S
KINGMAN        CLEAR     45  26  47 CALM      30.26R
FLAGSTAFF      PTCLDY    31  19  61 CALM      30.41F

$$

REGIONAL REPORTS    NEVADA/IDAHO/WYOMING

CITY           SKY/WX    TMP DP  RH WIND       PRES   REMARKS
LAS VEGAS, NV  CLEAR     61  24  24 SW3       30.18S
ELY            MOCLDY    29  23  78 S5        30.38S WCI  24
ELKO           MOCLDY    26  20  77 E5        30.37S WCI  20
POCATELLO, ID  CLOUDY    30  26  85 CALM      30.36S
BURLEY         PTCLDY    33  28  81 NE6       30.31R WCI  28
EVANSTON, WY   CLOUDY    37  18  46 S6        30.39S WCI  32
ROCK SPRINGS   CLOUDY    35  21  56 W12       30.37R WCI  27
KEMMERER       CLOUDY    32  19  59 NW10      30.39S WCI  24

$$



USA.gov is the U.S. government's official web portal to all federal, state and local government web resources and services.